Vorticity
5 5 5 7 8 11 14 11 13 1 8 -8 12 -5 10 7 7 4 16 18 17 32 26 25 22 18 21 1 6 14 12 7 1 2 18 13 13 10
13 14 15 15 16 16 12 13 10 3 4 9 22 7 14 24 11 10 7 22 4 9 -3 20 10 20 8 9 7 7 10 6 15 13 8 10 11 13
14 15 18 14 13 12 10 12 16 13 10 9 40 0 19 -0 12 12 2 15 14 11 13 -7 16 8 3 1 5 12 9 13 8 12 14 12 13 11
16 12 7 9 9 9 21 16 23 25 29 32 -7 9 25 -17 39 10 43 14 7 11 7 15 6 8 5 8 15 14 13 13 12 10 8 8 8 7
11 10 18 19 18 7 16 9 7 8 4 29 5 20 4 34 20 24 8 6 9 10 5 10 10 12 18 13 8 7 7 9 9 7 7 7 7 9
7 6 8 17 14 3 4 12 5 13 23 23 14 7 29 14 14 6 6 9 10 9 13 13 11 7 5 6 8 7 7 7 7 8 9 10 11 12
9 10 4 19 13 12 14 4 36 13 18 27 17 15 0 11 4 7 11 14 12 9 6 5 6 7 7 7 8 8 7 9 14 19 21 23 23 23
7 23 21 24 33 23 17 32 23 10 -1 8 10 7 11 10 11 9 9 6 7 7 6 7 6 8 7 9 17 24 28 28 27 25 24 21 16 12
9 10 21 19 12 13 6 9 14 20 17 16 16 13 13 9 11 11 8 7 8 7 6 10 12 20 30 28 24 20 16 13 9 6 6 6 7 8
7 5 6 5 2 -2 5 6 6 5 6 6 6 5 5 5 5 5 6 7 10 13 19 32 26 21 13 10 10 9 7 6 6 6 7 7 7 7
7 7 8 9 10 10 10 10 11 10 11 13 12 12 12 12 13 15 15 19 23 23 26 14 9 11 10 10 10 8 6 7 7 7 8 9 10 10
6 7 7 8 8 9 9 11 11 13 12 13 14 15 16 16 17 19 22 24 24 13 8 7 9 8 8 9 9 8 7 8 7 8 9 9 8 9
7 7 7 8 8 8 8 9 10 11 11 14 14 14 14 16 17 21 20 11 9 7 6 6 8 8 8 10 10 11 8 7 8 8 7 6 5 5
7 8 7 7 8 9 11 11 11 13 14 13 14 15 15 17 18 14 10 8 8 7 7 6 8 8 8 10 15 14 7 6 6 6 5 4 5 5
9 9 8 9 10 12 12 12 13 13 13 14 15 16 16 15 13 11 8 8 8 8 8 8 8 9 9 9 12 14 17 9 8 7 5 3 3 4
10 10 10 11 12 12 12 13 13 13 14 15 14 14 14 15 11 9 8 7 7 8 9 9 9 9 9 9 10 11 14 13 13 11 9 10 9 9
11 10 11 12 13 12 12 12 11 13 13 14 14 14 14 12 10 9 9 8 8 9 9 9 9 8 8 8 9 10 10 11 11 12 13 12 13 13
11 11 12 12 11 12 11 11 11 12 13 13 13 13 11 10 10 10 9 9 9 10 11 12 11 10 9 8 10 10 9 10 10 9 9 9 11 12
11 12 11 11 11 11 10 10 10 11 11 12 12 10 11 11 11 10 9 9 10 11 13 14 14 14 14 13 12 15 14 12 10 10 10 11 11 13
11 11 10 10 10 9 9 9 10 10 10 11 11 10 10 10 10 10 10 11 12 12 11 11 12 11 11 10 10 8 15 13 11 10 10 9 9 10
11 10 10 10 9 9 9 10 10 10 11 11 11 11 10 9 11 10 10 9 9 9 10 12 12 13 13 13 15 11 10 10 9 10 7 10 11 11
10 9 9 9 9 9 9 10 11 11 11 11 12 11 10 10 10 10 11 12 14 14 15 12 9 7 7 9 9 10 9 10 9 9 10 11 12 13
10 9 9 9 10 9 10 11 12 13 12 13 12 11 11 12 11 12 13 13 12 10 8 8 8 8 9 11 11 11 9 8 10 15 15 16 15 13
Height
3078 3076 3075 3074 3073 3071 3070 3068 3064 3059 3059 3059 3059 3056 3057 3058 3057 3058 3058 3058 3058 3056 3055 3054 3056 3056 3057 3058 3059 3061 3061 3061 3061 3062 3062 3062 3063 3064
3068 3067 3064 3064 3062 3061 3060 3058 3056 3052 3048 3048 3047 3046 3046 3046 3046 3047 3047 3048 3047 3046 3045 3047 3046 3047 3047 3048 3049 3050 3050 3050 3051 3051 3051 3050 3051 3051
3060 3058 3056 3055 3053 3052 3050 3048 3046 3043 3039 3038 3035 3036 3033 3034 3034 3037 3035 3036 3036 3036 3036 3038 3036 3036 3037 3039 3039 3038 3039 3038 3038 3038 3038 3038 3039 3039
3052 3050 3048 3046 3045 3043 3041 3039 3038 3034 3029 3028 3026 3025 3019 3022 3024 3025 3026 3024 3025 3026 3026 3028 3027 3027 3027 3028 3027 3026 3026 3027 3027 3027 3026 3026 3026 3026
3045 3043 3040 3038 3037 3035 3033 3030 3028 3024 3021 3018 3018 3017 3017 3016 3015 3014 3016 3017 3017 3017 3017 3018 3018 3017 3018 3017 3016 3016 3016 3016 3016 3014 3014 3014 3014 3014
3039 3037 3034 3032 3030 3028 3025 3023 3019 3016 3015 3012 3012 3010 3011 3010 3009 3010 3011 3011 3010 3009 3008 3006 3006 3008 3007 3006 3006 3005 3005 3005 3003 3002 3001 3001 3001 3001
3034 3031 3028 3026 3023 3020 3018 3015 3010 3010 3009 3008 3008 3006 3005 3005 3004 3004 3002 3002 3000 3000 2998 2997 2997 2996 2995 2995 2994 2993 2993 2992 2990 2989 2988 2988 2989 2989
3029 3025 3022 3019 3016 3014 3012 3009 3007 3006 3006 3004 3003 3001 2998 2997 2995 2995 2993 2993 2993 2990 2987 2988 2985 2986 2984 2983 2981 2981 2980 2980 2980 2979 2979 2979 2981 2981
3025 3023 3019 3016 3013 3011 3009 3006 3003 3002 3000 2998 2996 2994 2992 2990 2990 2988 2987 2985 2983 2980 2977 2981 2974 2975 2974 2973 2974 2974 2973 2973 2973 2972 2972 2973 2974 2974
3022 3020 3017 3014 3011 3009 3005 3002 3000 2997 2994 2992 2989 2986 2984 2981 2979 2977 2975 2973 2972 2970 2967 2969 2967 2967 2967 2967 2968 2968 2968 2968 2967 2967 2967 2967 2967 2967
3019 3017 3014 3011 3008 3004 3001 2998 2994 2991 2988 2985 2982 2979 2976 2973 2971 2970 2966 2964 2962 2961 2962 2962 2963 2963 2963 2962 2963 2962 2961 2960 2960 2959 2959 2959 2958 2957
3015 3013 3009 3005 3002 2999 2996 2992 2989 2985 2981 2977 2974 2970 2967 2964 2961 2959 2957 2956 2957 2957 2957 2959 2958 2958 2958 2956 2956 2955 2954 2953 2952 2951 2951 2950 2949 2948
3012 3008 3004 3000 2997 2993 2990 2986 2982 2978 2974 2971 2967 2963 2960 2957 2955 2954 2953 2953 2952 2952 2951 2951 2952 2951 2951 2951 2950 2949 2947 2945 2945 2944 2943 2942 2941 2939
3007 3003 2999 2996 2992 2988 2984 2980 2976 2972 2968 2964 2960 2957 2953 2951 2949 2948 2947 2947 2947 2947 2945 2944 2945 2944 2943 2944 2945 2944 2940 2939 2938 2938 2935 2933 2933 2930
3002 2998 2994 2991 2987 2982 2978 2974 2970 2966 2961 2958 2954 2951 2949 2947 2946 2945 2944 2943 2942 2941 2940 2938 2937 2936 2934 2933 2936 2936 2934 2933 2931 2930 2927 2925 2923 2921
2996 2992 2989 2985 2980 2977 2972 2968 2964 2960 2956 2952 2949 2947 2945 2943 2942 2941 2940 2938 2938 2935 2932 2930 2929 2927 2926 2924 2922 2926 2925 2922 2923 2920 2917 2916 2914 2912
2991 2987 2983 2979 2975 2971 2967 2963 2959 2955 2952 2948 2945 2942 2940 2938 2937 2935 2934 2933 2932 2930 2928 2924 2921 2919 2917 2915 2913 2914 2913 2912 2911 2909 2906 2903 2904 2901
2986 2981 2977 2974 2970 2966 2962 2958 2954 2951 2947 2943 2940 2938 2936 2934 2932 2930 2928 2926 2925 2922 2921 2918 2915 2911 2908 2907 2905 2903 2902 2900 2899 2895 2893 2889 2890 2891
2980 2976 2973 2969 2965 2962 2958 2953 2949 2946 2942 2938 2935 2933 2930 2929 2926 2924 2921 2919 2917 2914 2912 2910 2906 2902 2898 2896 2897 2895 2890 2889 2885 2883 2881 2878 2874 2878
2975 2972 2968 2964 2960 2956 2952 2948 2944 2940 2937 2933 2930 2928 2924 2922 2920 2917 2914 2911 2907 2905 2903 2901 2896 2892 2888 2884 2882 2886 2882 2877 2874 2870 2868 2865 2862 2862
2970 2966 2963 2959 2955 2951 2947 2944 2939 2935 2931 2928 2925 2921 2918 2915 2913 2909 2906 2903 2898 2896 2893 2891 2886 2881 2878 2874 2872 2872 2872 2867 2861 2857 2855 2851 2850 2847
2964 2960 2957 2954 2950 2946 2942 2938 2933 2929 2925 2922 2918 2915 2911 2907 2904 2901 2897 2894 2891 2886 2883 2881 2878 2874 2870 2865 2862 2858 2858 2857 2853 2846 2843 2839 2834 2830
2959 2955 2951 2947 2944 2940 2936 2931 2927 2923 2918 2914 2911 2907 2903 2900 2895 2892 2888 2885 2881 2878 2874 2871 2868 2864 2859 2854 2849 2846 2843 2841 2837 2834 2833 2827 2823 2818